EB2EMZ-3 Weather Reports


time (UTC)temp
F
wind
direction
speed
knots
gust
knots
rain 1hr
in
rain 24hr
in
rain mn
in
humidity
%
barometer
mb
20260506233428 58 22 2.6 4.3 0.00 0.00 0.00 76 1012.7
20260506232928 58 45 4.3 4.3 0.00 0.00 0.00 76 1012.5
20260506232428 59 22 2.6 2.6 0.00 0.00 0.00 75 1012.6
20260506231928 59 0 1.7 3.5 0.00 0.00 0.00 75 1012.6
20260506231428 59 22 3.5 3.5 0.00 0.00 0.00 75 1012.6
20260506230928 60 22 0.9 2.6 0.00 0.00 0.00 73 1012.6
20260506230428 60 0 1.7 1.7 0.00 0.00 0.00 73 1012.7
20260506225928 60 45 0.9 0.9 0.00 0.00 0.00 73 1012.6
20260506225428 60 45 0.0 4.3 0.00 0.00 0.00 73 1012.5
20260506224928 60 45 4.3 4.3 0.00 0.00 0.00 73 1012.6
20260506224429 61 135 0.0 0.0 0.00 0.00 0.00 73 1012.6
20260506223928 61 157 0.0 0.0 0.00 0.00 0.00 72 1012.6
20260506223429 61 157 0.0 0.0 0.00 0.00 0.00 72 1012.6
20260506222929 61 157 0.0 0.0 0.00 0.00 0.00 72 1012.5
20260506222429 61 157 0.0 0.0 0.00 0.00 0.00 71 1012.5
20260506221929 61 157 0.0 0.0 0.00 0.00 0.00 71 1012.4
20260506221429 61 157 0.0 0.0 0.00 0.00 0.00 71 1012.4
20260506220929 62 157 0.0 0.0 0.00 0.00 0.00 71 1012.3
20260506220429 62 157 0.0 0.0 0.00 0.00 0.00 71 1012.4
20260506215929 62 157 0.0 0.0 0.00 0.00 0.00 71 1012.4
20260506215429 62 157 0.0 0.0 0.00 0.00 0.00 70 1012.4
20260506214929 62 180 0.0 0.0 0.00 0.00 0.00 70 1012.5
20260506214429 62 225 0.0 0.0 0.00 0.00 0.00 70 1012.4
20260506213929 62 135 0.0 0.0 0.00 0.00 0.00 70 1012.4
20260506213429 62 135 0.0 0.0 0.00 0.00 0.00 70 1012.4
20260506212929 63 135 0.0 1.7 0.00 0.00 0.00 69 1012.4
20260506212429 63 135 1.7 1.7 0.00 0.00 0.00 69 1012.2
20260506211929 63 112 0.0 0.9 0.00 0.00 0.00 68 1012.3
20260506211429 63 112 0.9 0.9 0.00 0.00 0.00 68 1012.3
20260506210929 63 315 0.0 0.0 0.00 0.00 0.00 68 1012.3
20260506210429 64 270 0.0 0.0 0.00 0.00 0.00 68 1012.3
20260506205929 64 180 0.0 0.0 0.00 0.00 0.00 68 1012.1
20260506205429 64 180 0.0 1.7 0.00 0.00 0.00 68 1012.2
20260506204929 64 180 1.7 1.7 0.00 0.00 0.00 68 1012.1
20260506204429 64 202 0.0 1.7 0.00 0.00 0.00 67 1012.2
20260506203929 64 135 1.7 1.7 0.00 0.00 0.00 67 1012.0
20260506203429 64 180 1.7 1.7 0.00 0.00 0.00 67 1012.0
20260506202929 64 157 0.0 0.0 0.00 0.00 0.00 67 1012.1
20260506202429 64 157 0.0 4.3 0.00 0.00 0.00 67 1012.1
20260506201929 64 225 4.3 4.3 0.00 0.00 0.00 67 1011.8
20260506201429 64 225 4.3 5.2 0.00 0.00 0.00 67 1011.7
20260506200929 64 247 2.6 3.5 0.00 0.00 0.00 67 1011.7
20260506200429 64 247 3.5 3.5 0.00 0.00 0.00 68 1011.5
20260506195929 64 225 0.9 5.2 0.00 0.00 0.00 68 1011.5
20260506195429 64 247 3.5 4.3 0.00 0.00 0.00 68 1011.4
20260506194929 64 157 3.5 7.8 0.00 0.00 0.00 68 1011.4
20260506194429 64 247 7.8 7.8 0.00 0.00 0.00 68 1011.3
20260506193929 64 225 1.7 1.7 0.00 0.00 0.00 67 1011.2
20260506193429 64 225 0.0 0.0 0.00 0.00 0.00 67 1011.1
20260506192929 64 225 0.0 0.9 0.00 0.00 0.00 67 1011.2
20260506192429 64 225 0.9 2.6 0.00 0.00 0.00 67 1011.0
20260506191929 64 180 2.6 2.6 0.00 0.00 0.00 67 1011.1
20260506191429 64 225 2.6 4.3 0.00 0.00 0.00 66 1010.9
20260506190929 64 247 4.3 4.3 0.00 0.00 0.00 66 1010.9
20260506190429 64 225 3.5 5.2 0.00 0.00 0.00 66 1010.8
20260506185929 64 247 5.2 6.1 0.00 0.00 0.00 66 1010.8
20260506185429 65 202 0.9 2.6 0.00 0.00 0.00 67 1010.7
20260506184929 65 225 1.7 4.3 0.00 0.00 0.00 66 1010.6
20260506184429 65 225 0.9 1.7 0.00 0.00 0.00 66 1010.6
20260506183929 65 225 0.0 3.5 0.00 0.00 0.00 66 1010.5
20260506183429 65 247 0.0 0.0 0.00 0.00 0.00 66 1010.6
20260506182931 65 247 0.0 5.2 0.00 0.00 0.00 66 1010.5
20260506182429 65 180 0.9 6.1 0.00 0.00 0.00 66 1010.4
20260506181929 65 225 6.1 8.7 0.00 0.00 0.00 66 1010.5
20260506181429 65 202 0.9 4.3 0.00 0.00 0.00 66 1010.4
20260506180929 65 247 4.3 7.0 0.00 0.00 0.00 66 1010.1
20260506180429 65 225 7.0 7.0 0.00 0.00 0.00 66 1010.3
20260506175929 66 202 1.7 5.2 0.00 0.00 0.00 65 1010.0
20260506175429 66 247 4.3 4.3 0.00 0.00 0.00 65 1009.9
20260506174929 66 247 4.3 5.2 0.00 0.00 0.00 65 1009.9
20260506174429 66 247 2.6 6.1 0.00 0.00 0.00 64 1010.2
20260506173929 66 247 6.1 9.6 0.00 0.00 0.00 64 1010.1
20260506173430 66 225 9.6 9.6 0.00 0.00 0.00 64 1010.1
20260506172929 66 225 2.6 3.5 0.00 0.00 0.00 64 1010.1
20260506172429 67 225 3.5 3.5 0.00 0.00 0.00 64 1010.1
20260506171929 67 135 0.0 0.0 0.00 0.00 0.00 64 1010.1
20260506171430 67 135 0.0 9.6 0.00 0.00 0.00 64 1010.1
20260506170930 67 247 0.0 0.0 0.00 0.00 0.00 63 1010.1
20260506170430 68 247 0.0 3.5 0.00 0.00 0.00 63 1009.9
20260506165930 68 202 3.5 5.2 0.00 0.00 0.00 60 1010.0
20260506165430 68 225 5.2 5.2 0.00 0.00 0.00 60 1010.0
20260506164930 68 247 4.3 4.3 0.00 0.00 0.00 59 1009.9
20260506164430 68 247 4.3 4.3 0.00 0.00 0.00 59 1009.9
20260506163930 68 247 4.3 4.3 0.00 0.00 0.00 59 1009.9
20260506163430 68 180 4.3 4.3 0.00 0.00 0.00 59 1009.9
20260506162930 68 180 4.3 5.2 0.00 0.00 0.00 59 1009.7
20260506162430 69 225 4.3 4.3 0.00 0.00 0.00 58 1009.7
20260506161930 69 225 4.3 4.3 0.00 0.00 0.00 58 1009.7
20260506161430 69 135 4.3 4.3 0.00 0.00 0.00 57 1009.7
20260506160930 69 202 3.5 3.5 0.00 0.00 0.00 57 1009.7
20260506160430 70 135 1.7 1.7 0.00 0.00 0.00 57 1009.6
20260506155930 70 135 1.7 5.2 0.00 0.00 0.00 57 1009.7
20260506155430 70 225 5.2 5.2 0.00 0.00 0.00 56 1009.7
20260506154930 70 202 2.6 4.3 0.00 0.00 0.00 56 1009.7
20260506154430 70 202 0.0 7.0 0.00 0.00 0.00 56 1009.6
20260506153930 70 135 7.0 7.0 0.00 0.00 0.00 55 1009.7
20260506153430 70 135 7.0 7.0 0.00 0.00 0.00 55 1009.7
20260506152930 71 270 4.3 6.1 0.00 0.00 0.00 55 1009.8
20260506152430 71 202 6.1 7.0 0.00 0.00 0.00 55 1009.8
20260506151930 71 180 7.0 7.0 0.00 0.00 0.00 55 1009.8
20260506151430 70 180 0.0 4.3 0.00 0.00 0.00 55 1009.8
20260506150930 70 180 4.3 4.3 0.00 0.00 0.00 55 1009.8
20260506150430 70 112 3.5 3.5 0.00 0.00 0.00 56 1009.9
20260506145930 70 202 0.9 0.9 0.00 0.00 0.00 55 1010.1
20260506145430 70 202 0.0 3.5 0.00 0.00 0.00 54 1010.0
20260506144930 70 270 3.5 3.5 0.00 0.00 0.00 55 1010.0
20260506144430 70 247 2.6 6.1 0.00 0.00 0.00 55 1010.2
20260506143930 70 180 6.1 6.1 0.00 0.00 0.00 55 1010.2
20260506143430 70 112 1.7 5.2 0.00 0.00 0.00 55 1010.2
20260506142930 70 225 4.3 4.3 0.00 0.00 0.00 53 1010.3
20260506142430 69 180 0.0 0.0 0.00 0.00 0.00 54 1010.2
20260506141930 69 225 0.0 6.1 0.00 0.00 0.00 54 1010.3